Year,Month,Day,Hour,Minute,Value (Times are PST for temperature in C)
2018,07,14,00,00,15.30
2018,07,14,00,01,15.30
2018,07,14,00,02,15.30
2018,07,14,00,03,15.30
2018,07,14,00,04,15.30
2018,07,14,00,05,15.30
2018,07,14,00,06,15.30
2018,07,14,00,07,15.30
2018,07,14,00,08,15.30
2018,07,14,00,09,15.30
2018,07,14,00,10,15.20
2018,07,14,00,11,15.20
2018,07,14,00,12,15.20
2018,07,14,00,13,15.20
2018,07,14,00,14,15.20
2018,07,14,00,15,15.10
2018,07,14,00,16,15.10
2018,07,14,00,17,15.10
2018,07,14,00,18,15.10
2018,07,14,00,19,15.10
2018,07,14,00,20,15.20
2018,07,14,00,21,15.20
2018,07,14,00,22,15.20
2018,07,14,00,23,15.20
2018,07,14,00,24,15.20
2018,07,14,00,25,15.20
2018,07,14,00,26,15.20
2018,07,14,00,27,15.20
2018,07,14,00,28,15.20
2018,07,14,00,29,15.20
2018,07,14,00,30,15.20
2018,07,14,00,31,15.10
2018,07,14,00,32,15.10
2018,07,14,00,33,15.10
2018,07,14,00,34,15.10
2018,07,14,00,35,15.10
2018,07,14,00,36,15.10
2018,07,14,00,37,15.10
2018,07,14,00,38,15.10
2018,07,14,00,39,15.00
2018,07,14,00,40,15.00
2018,07,14,00,41,15.00
2018,07,14,00,42,15.00
2018,07,14,00,43,15.00
2018,07,14,00,44,15.00
2018,07,14,00,45,15.00
2018,07,14,00,46,14.90
2018,07,14,00,47,14.90
2018,07,14,00,48,14.90
2018,07,14,00,49,14.90
2018,07,14,00,50,14.90
2018,07,14,00,51,14.90
2018,07,14,00,52,14.90
2018,07,14,00,53,14.80
2018,07,14,00,54,14.80
2018,07,14,00,55,14.80
2018,07,14,00,56,14.80
2018,07,14,00,57,14.80
2018,07,14,00,58,14.80
2018,07,14,00,59,14.80
2018,07,14,01,00,14.80
2018,07,14,01,01,14.80
2018,07,14,01,02,14.80
2018,07,14,01,03,14.70
2018,07,14,01,04,14.70
2018,07,14,01,05,14.70
2018,07,14,01,06,14.70
2018,07,14,01,07,14.70
2018,07,14,01,08,14.70
2018,07,14,01,09,14.70
2018,07,14,01,10,14.70
2018,07,14,01,11,14.70
2018,07,14,01,12,14.70
2018,07,14,01,13,14.70
2018,07,14,01,14,14.70
2018,07,14,01,15,14.70
2018,07,14,01,16,14.70
2018,07,14,01,17,14.70
2018,07,14,01,18,14.70
2018,07,14,01,19,14.70
2018,07,14,01,20,14.70
2018,07,14,01,21,14.70
2018,07,14,01,22,14.70
2018,07,14,01,23,14.70
2018,07,14,01,24,14.60
2018,07,14,01,25,14.60
2018,07,14,01,26,14.60
2018,07,14,01,27,14.60
2018,07,14,01,28,14.60
2018,07,14,01,29,14.50
2018,07,14,01,30,14.50
2018,07,14,01,31,14.50
2018,07,14,01,32,14.50
2018,07,14,01,33,14.50
2018,07,14,01,34,14.50
2018,07,14,01,35,14.40
2018,07,14,01,36,14.40
2018,07,14,01,37,14.40
2018,07,14,01,38,14.40
2018,07,14,01,39,14.40
2018,07,14,01,40,14.40
2018,07,14,01,41,14.50
2018,07,14,01,42,14.50
2018,07,14,01,43,14.50
2018,07,14,01,44,14.50
2018,07,14,01,45,14.50
2018,07,14,01,46,14.50
2018,07,14,01,47,14.40
2018,07,14,01,48,14.40
2018,07,14,01,49,14.40
2018,07,14,01,50,14.40
2018,07,14,01,51,14.40
2018,07,14,01,52,14.40
2018,07,14,01,53,14.40
2018,07,14,01,54,14.40
2018,07,14,01,55,14.40
2018,07,14,01,56,14.40
2018,07,14,01,57,14.40
2018,07,14,01,58,14.40
2018,07,14,01,59,14.40
2018,07,14,02,00,14.40
2018,07,14,02,01,14.40
2018,07,14,02,02,14.30
2018,07,14,02,03,14.30
2018,07,14,02,04,14.30
2018,07,14,02,05,14.30
2018,07,14,02,06,14.30
2018,07,14,02,07,14.30
2018,07,14,02,08,14.30
2018,07,14,02,09,14.30
2018,07,14,02,10,14.30
2018,07,14,02,11,14.30
2018,07,14,02,12,14.30
2018,07,14,02,13,14.30
2018,07,14,02,14,14.30
2018,07,14,02,15,14.30
2018,07,14,02,16,14.30
2018,07,14,02,17,14.30
2018,07,14,02,18,14.30
2018,07,14,02,19,14.30
2018,07,14,02,20,14.30
2018,07,14,02,21,14.30
2018,07,14,02,22,14.30
2018,07,14,02,23,14.30
2018,07,14,02,24,14.30
2018,07,14,02,25,14.30
2018,07,14,02,26,14.30
2018,07,14,02,27,14.20
2018,07,14,02,28,14.20
2018,07,14,02,29,14.20
2018,07,14,02,30,14.20
2018,07,14,02,31,14.20
2018,07,14,02,32,14.20
2018,07,14,02,33,14.20
2018,07,14,02,34,14.20
2018,07,14,02,35,14.20
2018,07,14,02,36,14.20
2018,07,14,02,37,14.20
2018,07,14,02,38,14.20
2018,07,14,02,39,14.10
2018,07,14,02,40,14.10
2018,07,14,02,41,14.10
2018,07,14,02,42,14.10
2018,07,14,02,43,14.10
2018,07,14,02,44,14.10
2018,07,14,02,45,14.00
2018,07,14,02,46,14.00
2018,07,14,02,47,14.00
2018,07,14,02,48,14.00
2018,07,14,02,49,14.00
2018,07,14,02,50,14.00
2018,07,14,02,51,14.00
2018,07,14,02,52,14.00
2018,07,14,02,53,14.00
2018,07,14,02,54,14.00
2018,07,14,02,55,14.00
2018,07,14,02,56,13.90
2018,07,14,02,57,13.90
2018,07,14,02,58,13.90
2018,07,14,02,59,13.90
2018,07,14,03,00,13.90
2018,07,14,03,01,13.90
2018,07,14,03,02,13.90
2018,07,14,03,03,13.90
2018,07,14,03,04,13.90
2018,07,14,03,05,13.90
2018,07,14,03,06,14.00
2018,07,14,03,07,14.00
2018,07,14,03,08,14.00
2018,07,14,03,09,14.00
2018,07,14,03,10,13.90
2018,07,14,03,11,13.90
2018,07,14,03,12,13.90
2018,07,14,03,13,13.90
2018,07,14,03,14,13.90
2018,07,14,03,15,13.90
2018,07,14,03,16,13.80
2018,07,14,03,17,13.80
2018,07,14,03,18,13.80
2018,07,14,03,19,13.80
2018,07,14,03,20,13.70
2018,07,14,03,21,13.70
2018,07,14,03,22,13.70
2018,07,14,03,23,13.70
2018,07,14,03,24,13.70
2018,07,14,03,25,13.70
2018,07,14,03,26,13.70
2018,07,14,03,27,13.70
2018,07,14,03,28,13.70
2018,07,14,03,29,13.70
2018,07,14,03,30,13.70
2018,07,14,03,31,13.70
2018,07,14,03,32,13.70
2018,07,14,03,33,13.70
2018,07,14,03,34,13.70
2018,07,14,03,35,13.70
2018,07,14,03,36,13.70
2018,07,14,03,37,13.70
2018,07,14,03,38,13.70
2018,07,14,03,39,13.70
2018,07,14,03,40,13.70
2018,07,14,03,41,13.70
2018,07,14,03,42,13.70
2018,07,14,03,43,13.70
2018,07,14,03,44,13.70
2018,07,14,03,45,13.60
2018,07,14,03,46,13.60
2018,07,14,03,47,13.60
2018,07,14,03,48,13.60
2018,07,14,03,49,13.60
2018,07,14,03,50,13.60
2018,07,14,03,51,13.60
2018,07,14,03,52,13.60
2018,07,14,03,53,13.60
2018,07,14,03,54,13.60
2018,07,14,03,55,13.60
2018,07,14,03,56,13.60
2018,07,14,03,57,13.60
2018,07,14,03,58,13.60
2018,07,14,03,59,13.60
2018,07,14,04,00,13.60
2018,07,14,04,01,13.60
2018,07,14,04,02,13.60
2018,07,14,04,03,13.60
2018,07,14,04,04,13.60
2018,07,14,04,05,13.60
2018,07,14,04,06,13.50
2018,07,14,04,07,13.50
2018,07,14,04,08,13.50
2018,07,14,04,09,13.50
2018,07,14,04,10,13.50
2018,07,14,04,11,13.50
2018,07,14,04,12,13.50
2018,07,14,04,13,13.50
2018,07,14,04,14,13.50
2018,07,14,04,15,13.40
2018,07,14,04,16,13.40
2018,07,14,04,17,13.40
2018,07,14,04,18,13.40
2018,07,14,04,19,13.30
2018,07,14,04,20,13.30
2018,07,14,04,21,13.30
2018,07,14,04,22,13.30
2018,07,14,04,23,13.30
2018,07,14,04,24,13.30
2018,07,14,04,25,13.30
2018,07,14,04,26,13.30
2018,07,14,04,27,13.30
2018,07,14,04,28,13.30
2018,07,14,04,29,13.30
2018,07,14,04,30,13.30
2018,07,14,04,31,13.20
2018,07,14,04,32,13.20
2018,07,14,04,33,13.20
2018,07,14,04,34,13.20
2018,07,14,04,35,13.20
2018,07,14,04,36,13.20
2018,07,14,04,37,13.20
2018,07,14,04,38,13.20
2018,07,14,04,39,13.20
2018,07,14,04,40,13.20
2018,07,14,04,41,13.20
2018,07,14,04,42,13.10
2018,07,14,04,43,13.10
2018,07,14,04,44,13.10
2018,07,14,04,45,13.10
2018,07,14,04,46,13.10
2018,07,14,04,47,13.10
2018,07,14,04,48,13.10
2018,07,14,04,49,13.10
2018,07,14,04,50,13.00
2018,07,14,04,51,13.00
2018,07,14,04,52,13.00
2018,07,14,04,53,13.00
2018,07,14,04,54,13.00
2018,07,14,04,55,13.00
2018,07,14,04,56,13.00
2018,07,14,04,57,12.90
2018,07,14,04,58,12.90
2018,07,14,04,59,12.90
2018,07,14,05,00,12.80
2018,07,14,05,01,12.80
2018,07,14,05,02,12.80
2018,07,14,05,03,12.80
2018,07,14,05,04,12.80
2018,07,14,05,05,12.80
2018,07,14,05,06,12.80
2018,07,14,05,07,12.80
2018,07,14,05,08,12.80
2018,07,14,05,09,12.80
2018,07,14,05,10,12.80
2018,07,14,05,11,12.80
2018,07,14,05,12,12.80
2018,07,14,05,13,12.80
2018,07,14,05,14,12.80
2018,07,14,05,15,12.80
2018,07,14,05,16,12.80
2018,07,14,05,17,12.80
2018,07,14,05,18,12.80
2018,07,14,05,19,12.80
2018,07,14,05,20,12.80
2018,07,14,05,21,12.80
2018,07,14,05,22,12.80
2018,07,14,05,23,12.80
2018,07,14,05,24,12.80
2018,07,14,05,25,12.80
2018,07,14,05,26,12.80
2018,07,14,05,27,12.80
2018,07,14,05,28,12.80
2018,07,14,05,29,12.80
2018,07,14,05,30,12.80
2018,07,14,05,31,12.80
2018,07,14,05,32,12.80
2018,07,14,05,33,12.80
2018,07,14,05,34,12.80
2018,07,14,05,35,12.80
2018,07,14,05,36,12.80
2018,07,14,05,37,12.80
2018,07,14,05,38,12.80
2018,07,14,05,39,12.80
2018,07,14,05,40,12.80
2018,07,14,05,41,12.80
2018,07,14,05,42,12.80
2018,07,14,05,43,12.80
2018,07,14,05,44,12.80
2018,07,14,05,45,12.80
2018,07,14,05,46,12.80
2018,07,14,05,47,12.80
2018,07,14,05,48,12.80
2018,07,14,05,49,12.80
2018,07,14,05,50,12.80
2018,07,14,05,51,12.80
2018,07,14,05,52,12.80
2018,07,14,05,53,12.80
2018,07,14,05,54,12.80
2018,07,14,05,55,12.80
2018,07,14,05,56,12.80
2018,07,14,05,57,12.80
2018,07,14,05,58,12.80
2018,07,14,05,59,12.80
2018,07,14,06,00,12.80
2018,07,14,06,01,12.80
2018,07,14,06,02,12.80
2018,07,14,06,03,12.80
2018,07,14,06,04,12.80
2018,07,14,06,05,12.80
2018,07,14,06,06,12.80
2018,07,14,06,07,12.90
2018,07,14,06,08,12.90
2018,07,14,06,09,13.00
2018,07,14,06,10,13.10
2018,07,14,06,11,13.10
2018,07,14,06,12,13.20
2018,07,14,06,13,13.30
2018,07,14,06,14,13.30
2018,07,14,06,15,13.40
2018,07,14,06,16,13.50
2018,07,14,06,17,13.60
2018,07,14,06,18,13.60
2018,07,14,06,19,13.60
2018,07,14,06,20,13.60
2018,07,14,06,21,13.70
2018,07,14,06,22,13.70
2018,07,14,06,23,13.70
2018,07,14,06,24,13.70
2018,07,14,06,25,13.80
2018,07,14,06,26,13.80
2018,07,14,06,27,13.90
2018,07,14,06,28,14.00
2018,07,14,06,29,14.10
2018,07,14,06,30,14.10
2018,07,14,06,31,14.20
2018,07,14,06,32,14.20
2018,07,14,06,33,14.20
2018,07,14,06,34,14.20
2018,07,14,06,35,14.30
2018,07,14,06,36,14.30
2018,07,14,06,37,14.30
2018,07,14,06,38,14.40
2018,07,14,06,39,14.40
2018,07,14,06,40,14.50
2018,07,14,06,41,14.50
2018,07,14,06,42,14.60
2018,07,14,06,43,14.60
2018,07,14,06,44,14.60
2018,07,14,06,45,14.70
2018,07,14,06,46,14.80
2018,07,14,06,47,14.90
2018,07,14,06,48,15.00
2018,07,14,06,49,15.10
2018,07,14,06,50,15.20
2018,07,14,06,51,15.30
2018,07,14,06,52,15.30
2018,07,14,06,53,15.40
2018,07,14,06,54,15.40
2018,07,14,06,55,15.40
2018,07,14,06,56,15.40
2018,07,14,06,57,15.40
2018,07,14,06,58,15.50
2018,07,14,06,59,15.50
2018,07,14,07,00,15.50
2018,07,14,07,01,15.60
2018,07,14,07,02,15.60
2018,07,14,07,03,15.60
2018,07,14,07,04,15.60
2018,07,14,07,05,15.60
2018,07,14,07,06,15.50
2018,07,14,07,07,15.50
2018,07,14,07,08,15.40
2018,07,14,07,09,15.30
2018,07,14,07,10,15.30
2018,07,14,07,11,15.20
2018,07,14,07,12,15.20
2018,07,14,07,13,15.30
2018,07,14,07,14,15.30
2018,07,14,07,15,15.20
2018,07,14,07,16,15.20
2018,07,14,07,17,15.10
2018,07,14,07,18,15.10
2018,07,14,07,19,15.00
2018,07,14,07,20,14.90
2018,07,14,07,21,14.80
2018,07,14,07,22,14.80
2018,07,14,07,23,14.90
2018,07,14,07,24,14.90
2018,07,14,07,25,14.90
2018,07,14,07,26,14.90
2018,07,14,07,27,15.00
2018,07,14,07,28,15.00
2018,07,14,07,29,15.00
2018,07,14,07,30,15.00
2018,07,14,07,31,15.00
2018,07,14,07,32,15.00
2018,07,14,07,33,15.00
2018,07,14,07,34,15.10
2018,07,14,07,35,15.10
2018,07,14,07,36,15.20
2018,07,14,07,37,15.30
2018,07,14,07,38,15.30
2018,07,14,07,39,15.40
2018,07,14,07,40,15.50
2018,07,14,07,41,15.50
2018,07,14,07,42,15.60
2018,07,14,07,43,15.70
2018,07,14,07,44,15.80
2018,07,14,07,45,15.90
2018,07,14,07,46,16.10
2018,07,14,07,47,16.20
2018,07,14,07,48,16.20
2018,07,14,07,49,16.30
2018,07,14,07,50,16.40
2018,07,14,07,51,16.40
2018,07,14,07,52,16.50
2018,07,14,07,53,16.60
2018,07,14,07,54,16.70
2018,07,14,07,55,16.80
2018,07,14,07,56,16.80
2018,07,14,07,57,16.90
2018,07,14,07,58,17.00
2018,07,14,07,59,17.00
2018,07,14,08,00,17.10
2018,07,14,08,01,17.20
2018,07,14,08,02,17.30
2018,07,14,08,03,17.30
2018,07,14,08,04,17.40
2018,07,14,08,05,17.40
2018,07,14,08,06,17.40
2018,07,14,08,07,17.40
2018,07,14,08,08,17.40
2018,07,14,08,09,17.40
2018,07,14,08,10,17.30
2018,07,14,08,11,17.30
2018,07,14,08,12,17.20
2018,07,14,08,13,17.10
2018,07,14,08,14,17.10
2018,07,14,08,15,17.10
2018,07,14,08,16,17.10
2018,07,14,08,17,17.20
2018,07,14,08,18,17.10
2018,07,14,08,19,17.10
2018,07,14,08,20,17.10
2018,07,14,08,21,17.10
2018,07,14,08,22,17.00
2018,07,14,08,23,17.00
2018,07,14,08,24,16.90
2018,07,14,08,25,16.80
2018,07,14,08,26,16.90
2018,07,14,08,27,16.90
2018,07,14,08,28,16.90
2018,07,14,08,29,17.00
2018,07,14,08,30,17.00
2018,07,14,08,31,17.10
2018,07,14,08,32,17.20
2018,07,14,08,33,17.30
2018,07,14,08,34,17.40
2018,07,14,08,35,17.30
2018,07,14,08,36,17.30
2018,07,14,08,37,17.40
2018,07,14,08,38,17.50
2018,07,14,08,39,17.50
2018,07,14,08,40,17.60
2018,07,14,08,41,17.70
2018,07,14,08,42,17.80
2018,07,14,08,43,17.80
2018,07,14,08,44,17.90
2018,07,14,08,45,17.90
2018,07,14,08,46,17.90
2018,07,14,08,47,18.10
2018,07,14,08,48,18.10
2018,07,14,08,49,18.20
2018,07,14,08,50,18.20
2018,07,14,08,51,18.30
2018,07,14,08,52,18.40
2018,07,14,08,53,18.50
2018,07,14,08,54,18.60
2018,07,14,08,55,18.60
2018,07,14,08,56,18.70
2018,07,14,08,57,18.70
2018,07,14,08,58,18.60
2018,07,14,08,59,18.50
2018,07,14,09,00,18.50
2018,07,14,09,01,18.50
2018,07,14,09,02,18.50
2018,07,14,09,03,18.50
2018,07,14,09,04,18.30
2018,07,14,09,05,18.20
2018,07,14,09,06,18.20
2018,07,14,09,07,18.20
2018,07,14,09,08,18.20
2018,07,14,09,09,18.20
2018,07,14,09,10,18.10
2018,07,14,09,11,18.00
2018,07,14,09,12,18.00
2018,07,14,09,13,18.10
2018,07,14,09,14,18.10
2018,07,14,09,15,18.20
2018,07,14,09,16,18.20
2018,07,14,09,17,18.20
2018,07,14,09,18,18.20
2018,07,14,09,19,18.20
2018,07,14,09,20,18.20
2018,07,14,09,21,18.20
2018,07,14,09,22,18.20
2018,07,14,09,23,18.20
2018,07,14,09,24,18.30
2018,07,14,09,25,18.40
2018,07,14,09,26,18.40
2018,07,14,09,27,18.50
2018,07,14,09,28,18.50
2018,07,14,09,29,18.60
2018,07,14,09,30,18.70
2018,07,14,09,31,18.70
2018,07,14,09,32,18.70
2018,07,14,09,33,18.70
2018,07,14,09,34,18.70
2018,07,14,09,35,18.70
2018,07,14,09,36,18.70
2018,07,14,09,37,18.70
2018,07,14,09,38,18.80
2018,07,14,09,39,18.80
2018,07,14,09,40,18.90
2018,07,14,09,41,18.90
2018,07,14,09,42,18.90
2018,07,14,09,43,19.00
2018,07,14,09,44,19.10
2018,07,14,09,45,19.10
2018,07,14,09,46,19.10
2018,07,14,09,47,19.20
2018,07,14,09,48,19.20
2018,07,14,09,49,19.30
2018,07,14,09,50,19.40
2018,07,14,09,51,19.40
2018,07,14,09,52,19.60
2018,07,14,09,53,19.70
2018,07,14,09,54,19.60
2018,07,14,09,55,19.50
2018,07,14,09,56,19.60
2018,07,14,09,57,19.60
2018,07,14,09,58,19.60
2018,07,14,09,59,19.70
2018,07,14,10,00,19.70
2018,07,14,10,01,19.60
2018,07,14,10,02,19.60
2018,07,14,10,03,19.60
2018,07,14,10,04,19.60
2018,07,14,10,05,19.70
2018,07,14,10,06,19.70
2018,07,14,10,07,19.90
2018,07,14,10,08,19.90
2018,07,14,10,09,20.10
2018,07,14,10,10,20.20
2018,07,14,10,11,20.20
2018,07,14,10,12,20.20
2018,07,14,10,13,20.30
2018,07,14,10,14,20.30
2018,07,14,10,15,20.30
2018,07,14,10,16,20.30
2018,07,14,10,17,20.40
2018,07,14,10,18,20.50
2018,07,14,10,19,20.60
2018,07,14,10,20,20.60
2018,07,14,10,21,20.60
2018,07,14,10,22,20.60
2018,07,14,10,23,20.70
2018,07,14,10,24,20.70
2018,07,14,10,25,20.50
2018,07,14,10,26,20.50
2018,07,14,10,27,20.50
2018,07,14,10,28,20.40
2018,07,14,10,29,20.40
2018,07,14,10,30,20.50
2018,07,14,10,31,20.50
2018,07,14,10,32,20.70
2018,07,14,10,33,20.80
2018,07,14,10,34,20.90
2018,07,14,10,35,21.00
2018,07,14,10,36,21.00
2018,07,14,10,37,21.10
2018,07,14,10,38,21.20
2018,07,14,10,39,21.30
2018,07,14,10,40,21.30
2018,07,14,10,41,21.40
2018,07,14,10,42,21.50
2018,07,14,10,43,21.60
2018,07,14,10,44,21.50
2018,07,14,10,45,21.40
2018,07,14,10,46,21.30
2018,07,14,10,47,21.20
2018,07,14,10,48,21.10
2018,07,14,10,49,21.10
2018,07,14,10,50,21.10
2018,07,14,10,51,21.00
2018,07,14,10,52,20.80
2018,07,14,10,53,20.60
2018,07,14,10,54,20.50
2018,07,14,10,55,20.40
2018,07,14,10,56,20.20
2018,07,14,10,57,20.20
2018,07,14,10,58,20.20
2018,07,14,10,59,20.20
2018,07,14,11,00,20.30
2018,07,14,11,01,20.40
2018,07,14,11,02,20.40
2018,07,14,11,03,20.50
2018,07,14,11,04,20.50
2018,07,14,11,05,20.60
2018,07,14,11,06,20.70
2018,07,14,11,07,20.80
2018,07,14,11,08,20.80
2018,07,14,11,09,20.90
2018,07,14,11,10,20.80
2018,07,14,11,11,20.70
2018,07,14,11,12,20.50
2018,07,14,11,13,20.40
2018,07,14,11,14,20.50
2018,07,14,11,15,20.50
2018,07,14,11,16,20.60
2018,07,14,11,17,20.70
2018,07,14,11,18,20.80
2018,07,14,11,19,20.90
2018,07,14,11,20,21.00
2018,07,14,11,21,21.10
2018,07,14,11,22,21.10
2018,07,14,11,23,21.10
2018,07,14,11,24,21.10
2018,07,14,11,25,21.00
2018,07,14,11,26,20.90
2018,07,14,11,27,20.90
2018,07,14,11,28,20.90
2018,07,14,11,29,20.90
2018,07,14,11,30,20.80
2018,07,14,11,31,20.70
2018,07,14,11,32,20.50
2018,07,14,11,33,20.40
2018,07,14,11,34,20.40
2018,07,14,11,35,20.50
2018,07,14,11,36,20.60
2018,07,14,11,37,20.60
2018,07,14,11,38,20.50
2018,07,14,11,39,20.70
2018,07,14,11,40,20.80
2018,07,14,11,41,20.90
2018,07,14,11,42,21.00
2018,07,14,11,43,21.10
2018,07,14,11,44,21.20
2018,07,14,11,45,21.40
2018,07,14,11,46,21.50
2018,07,14,11,47,21.70
2018,07,14,11,48,21.90
2018,07,14,11,49,22.10
2018,07,14,11,50,22.20
2018,07,14,11,51,22.40
2018,07,14,11,52,22.50
2018,07,14,11,53,22.60
2018,07,14,11,54,22.80
2018,07,14,11,55,22.90
2018,07,14,11,56,23.00
2018,07,14,11,57,23.10
2018,07,14,11,58,23.00
2018,07,14,11,59,22.90
2018,07,14,12,00,22.80
2018,07,14,12,01,22.70
2018,07,14,12,02,22.50
2018,07,14,12,03,22.40
2018,07,14,12,04,22.30
2018,07,14,12,05,22.10
2018,07,14,12,06,22.00
2018,07,14,12,07,21.80
2018,07,14,12,08,21.90
2018,07,14,12,09,21.90
2018,07,14,12,10,21.90
2018,07,14,12,11,21.80
2018,07,14,12,12,21.80
2018,07,14,12,13,22.00
2018,07,14,12,14,22.10
2018,07,14,12,15,22.10
2018,07,14,12,16,22.20
2018,07,14,12,17,22.20
2018,07,14,12,18,22.20
2018,07,14,12,19,22.20
2018,07,14,12,20,22.30
2018,07,14,12,21,22.40
2018,07,14,12,22,22.50
2018,07,14,12,23,22.60
2018,07,14,12,24,22.60
2018,07,14,12,25,22.70
2018,07,14,12,26,22.80
2018,07,14,12,27,22.90
2018,07,14,12,28,23.10
2018,07,14,12,29,23.20
2018,07,14,12,30,23.30
2018,07,14,12,31,23.40
2018,07,14,12,32,23.40
2018,07,14,12,33,23.50
2018,07,14,12,34,23.30
2018,07,14,12,35,23.00
2018,07,14,12,36,22.90
2018,07,14,12,37,22.70
2018,07,14,12,38,22.70
2018,07,14,12,39,22.70
2018,07,14,12,40,22.80
2018,07,14,12,41,22.80
2018,07,14,12,42,22.80
2018,07,14,12,43,22.60
2018,07,14,12,44,22.50
2018,07,14,12,45,22.50
2018,07,14,12,46,22.50
2018,07,14,12,47,22.50
2018,07,14,12,48,22.60
2018,07,14,12,49,22.60
2018,07,14,12,50,22.70
2018,07,14,12,51,22.70
2018,07,14,12,52,22.80
2018,07,14,12,53,22.90
2018,07,14,12,54,23.00
2018,07,14,12,55,23.10
2018,07,14,12,56,23.20
2018,07,14,12,57,23.30
2018,07,14,12,58,23.30
2018,07,14,12,59,23.50
2018,07,14,13,00,23.60
2018,07,14,13,01,23.80
2018,07,14,13,02,24.10
2018,07,14,13,03,24.30
2018,07,14,13,04,24.60
2018,07,14,13,05,24.80
2018,07,14,13,06,25.00
2018,07,14,13,07,25.30
2018,07,14,13,08,25.50
2018,07,14,13,09,25.70
2018,07,14,13,10,25.80
2018,07,14,13,11,25.90
2018,07,14,13,12,25.90
2018,07,14,13,13,26.00
2018,07,14,13,14,26.10
2018,07,14,13,15,26.00
2018,07,14,13,16,26.00
2018,07,14,13,17,25.90
2018,07,14,13,18,26.00
2018,07,14,13,19,26.00
2018,07,14,13,20,25.80
2018,07,14,13,21,25.50
2018,07,14,13,22,25.00
2018,07,14,13,23,24.60
2018,07,14,13,24,24.30
2018,07,14,13,25,24.10
2018,07,14,13,26,24.10
2018,07,14,13,27,24.20
2018,07,14,13,28,24.30
2018,07,14,13,29,24.40
2018,07,14,13,30,24.30
2018,07,14,13,31,24.30
2018,07,14,13,32,24.40
2018,07,14,13,33,24.50
2018,07,14,13,34,24.70
2018,07,14,13,35,24.90
2018,07,14,13,36,25.10
2018,07,14,13,37,25.30
2018,07,14,13,38,25.40
2018,07,14,13,39,25.60
2018,07,14,13,40,25.70
2018,07,14,13,41,25.80
2018,07,14,13,42,25.90
2018,07,14,13,43,25.90
2018,07,14,13,44,25.80
2018,07,14,13,45,25.80
2018,07,14,13,46,25.80
2018,07,14,13,47,25.80
2018,07,14,13,48,25.80
2018,07,14,13,49,25.90
2018,07,14,13,50,26.00
2018,07,14,13,51,26.10
2018,07,14,13,52,26.20
2018,07,14,13,53,26.20
2018,07,14,13,54,26.20
2018,07,14,13,55,26.20
2018,07,14,13,56,26.20
2018,07,14,13,57,26.10
2018,07,14,13,58,26.10
2018,07,14,13,59,26.20
2018,07,14,14,00,26.20
2018,07,14,14,01,26.10
2018,07,14,14,02,26.10
2018,07,14,14,03,26.00
2018,07,14,14,04,26.00
2018,07,14,14,05,26.00
2018,07,14,14,06,25.90
2018,07,14,14,07,25.80
2018,07,14,14,08,25.70
2018,07,14,14,09,25.70
2018,07,14,14,10,25.70
2018,07,14,14,11,25.60
2018,07,14,14,12,25.50
2018,07,14,14,13,25.50
2018,07,14,14,14,25.50
2018,07,14,14,15,25.40
2018,07,14,14,16,25.40
2018,07,14,14,17,25.20
2018,07,14,14,18,25.10
2018,07,14,14,19,25.10
2018,07,14,14,20,25.10
2018,07,14,14,21,25.10
2018,07,14,14,22,25.10
2018,07,14,14,23,25.10
2018,07,14,14,24,25.10
2018,07,14,14,25,25.20
2018,07,14,14,26,25.00
2018,07,14,14,27,25.00
2018,07,14,14,28,25.10
2018,07,14,14,29,25.20
2018,07,14,14,30,25.30
2018,07,14,14,31,25.50
2018,07,14,14,32,25.80
2018,07,14,14,33,26.00
2018,07,14,14,34,26.30
2018,07,14,14,35,26.50
2018,07,14,14,36,26.60
2018,07,14,14,37,26.50
2018,07,14,14,38,26.20
2018,07,14,14,39,25.90
2018,07,14,14,40,25.80
2018,07,14,14,41,25.70
2018,07,14,14,42,25.80
2018,07,14,14,43,25.70
2018,07,14,14,44,25.40
2018,07,14,14,45,25.10
2018,07,14,14,46,24.90
2018,07,14,14,47,24.70
2018,07,14,14,48,24.50
2018,07,14,14,49,24.50
2018,07,14,14,50,24.50
2018,07,14,14,51,24.40
2018,07,14,14,52,24.30
2018,07,14,14,53,24.30
2018,07,14,14,54,24.30
2018,07,14,14,55,24.30
2018,07,14,14,56,24.40
2018,07,14,14,57,24.50
2018,07,14,14,58,24.60
2018,07,14,14,59,24.70
2018,07,14,15,00,24.90
2018,07,14,15,01,25.00
2018,07,14,15,02,25.10
2018,07,14,15,03,25.10
2018,07,14,15,04,25.10
2018,07,14,15,05,25.10
2018,07,14,15,06,24.90
2018,07,14,15,07,24.90
2018,07,14,15,08,25.00
2018,07,14,15,09,25.00
2018,07,14,15,10,25.00
2018,07,14,15,11,25.00
2018,07,14,15,12,25.00
2018,07,14,15,13,25.00
2018,07,14,15,14,25.00
2018,07,14,15,15,25.00
2018,07,14,15,16,25.10
2018,07,14,15,17,25.10
2018,07,14,15,18,25.00
2018,07,14,15,19,24.80
2018,07,14,15,20,24.80
2018,07,14,15,21,24.70
2018,07,14,15,22,24.70
2018,07,14,15,23,24.70
2018,07,14,15,24,24.70
2018,07,14,15,25,24.70
2018,07,14,15,26,24.50
2018,07,14,15,27,24.50
2018,07,14,15,28,24.50
2018,07,14,15,29,24.50
2018,07,14,15,30,24.50
2018,07,14,15,31,24.50
2018,07,14,15,32,24.60
2018,07,14,15,33,24.70
2018,07,14,15,34,24.70
2018,07,14,15,35,24.70
2018,07,14,15,36,24.60
2018,07,14,15,37,24.60
2018,07,14,15,38,24.70
2018,07,14,15,39,24.60
2018,07,14,15,40,24.60
2018,07,14,15,41,24.70
2018,07,14,15,42,24.70
2018,07,14,15,43,24.50
2018,07,14,15,44,24.50
2018,07,14,15,45,24.50
2018,07,14,15,46,24.50
2018,07,14,15,47,24.50
2018,07,14,15,48,24.60
2018,07,14,15,49,24.60
2018,07,14,15,50,24.70
2018,07,14,15,51,24.80
2018,07,14,15,52,24.80
2018,07,14,15,53,24.60
2018,07,14,15,54,24.50
2018,07,14,15,55,24.60
2018,07,14,15,56,24.70
2018,07,14,15,57,24.70
2018,07,14,15,58,24.80
2018,07,14,15,59,24.80
2018,07,14,16,00,24.80
2018,07,14,16,01,24.80
2018,07,14,16,02,24.80
2018,07,14,16,03,24.90
2018,07,14,16,04,24.90
2018,07,14,16,05,24.90
2018,07,14,16,06,25.00
2018,07,14,16,07,25.10
2018,07,14,16,08,25.00
2018,07,14,16,09,24.80
2018,07,14,16,10,24.70
2018,07,14,16,11,24.60
2018,07,14,16,12,24.60
2018,07,14,16,13,24.70
2018,07,14,16,14,24.80
2018,07,14,16,15,24.90
2018,07,14,16,16,24.90
2018,07,14,16,17,24.90
2018,07,14,16,18,24.90
2018,07,14,16,19,24.90
2018,07,14,16,20,25.00
2018,07,14,16,21,25.10
2018,07,14,16,22,25.10
2018,07,14,16,23,25.10
2018,07,14,16,24,25.10
2018,07,14,16,25,25.20
2018,07,14,16,26,25.20
2018,07,14,16,27,25.20
2018,07,14,16,28,25.20
2018,07,14,16,29,25.20
2018,07,14,16,30,25.30
2018,07,14,16,31,25.30
2018,07,14,16,32,25.30
2018,07,14,16,33,25.40
2018,07,14,16,34,25.30
2018,07,14,16,35,25.30
2018,07,14,16,36,25.30
2018,07,14,16,37,25.40
2018,07,14,16,38,25.50
2018,07,14,16,39,25.50
2018,07,14,16,40,25.50
2018,07,14,16,41,25.50
2018,07,14,16,42,25.40
2018,07,14,16,43,25.40
2018,07,14,16,44,25.40
2018,07,14,16,45,25.40
2018,07,14,16,46,25.40
2018,07,14,16,47,25.40
2018,07,14,16,48,25.40
2018,07,14,16,49,25.40
2018,07,14,16,50,25.40
2018,07,14,16,51,25.40
2018,07,14,16,52,25.40
2018,07,14,16,53,25.40
2018,07,14,16,54,25.50
2018,07,14,16,55,25.60
2018,07,14,16,56,25.70
2018,07,14,16,57,25.70
2018,07,14,16,58,25.70
2018,07,14,16,59,25.70
2018,07,14,17,00,25.60
2018,07,14,17,01,25.50
2018,07,14,17,02,25.40
2018,07,14,17,03,25.40
2018,07,14,17,04,25.40
2018,07,14,17,05,25.50
2018,07,14,17,06,25.50
2018,07,14,17,07,25.50
2018,07,14,17,08,25.50
2018,07,14,17,09,25.40
2018,07,14,17,10,25.40
2018,07,14,17,11,25.50
2018,07,14,17,12,25.50
2018,07,14,17,13,25.40
2018,07,14,17,14,25.40
2018,07,14,17,15,25.40
2018,07,14,17,16,25.40
2018,07,14,17,17,25.40
2018,07,14,17,18,25.40
2018,07,14,17,19,25.30